| time (UTC) | temp F | wind direction | speed MPH | gust MPH | rain 1hr in | rain 24hr in | rain mn in | humidity % | barometer mb |
| 20260901192115 | 93 | 50 | 0.0 | 1.0 | 0.00 | 0.21 | 0.21 | 76 | 1016.0 |
| 20260901191611 | 93 | 152 | 6.0 | 9.0 | 0.00 | 0.21 | 0.21 | 76 | 1015.8 |
| 20260901191107 | 91 | 29 | 5.0 | 7.0 | 0.00 | 0.21 | 0.21 | 77 | 1015.7 |
| 20260901190602 | 91 | 335 | 1.0 | 3.0 | 0.00 | 0.21 | 0.21 | 79 | 1016.0 |
| 20260901185600 | 92 | 69 | 6.0 | 8.0 | 0.00 | 0.21 | 0.21 | 78 | 1016.3 |
| 20260901185059 | 94 | 72 | 2.0 | 2.0 | 0.00 | 0.21 | 0.21 | 77 | 1016.2 |
| 20260901184554 | 93 | 31 | 3.0 | 5.0 | 0.00 | 0.21 | 0.21 | 76 | 1016.1 |
| 20260901184049 | 94 | 22 | 4.0 | 5.0 | 0.00 | 0.21 | 0.21 | 75 | 1016.4 |
| 20260901183544 | 92 | 135 | 2.0 | 5.0 | 0.00 | 0.21 | 0.21 | 76 | 1016.2 |
| 20260901183040 | 94 | 44 | 2.0 | 5.0 | 0.00 | 0.21 | 0.21 | 73 | 1016.3 |
| 20260901182535 | 93 | 101 | 3.0 | 3.0 | 0.00 | 0.21 | 0.21 | 76 | 1016.3 |
| 20260901182030 | 94 | 216 | 1.0 | 1.0 | 0.00 | 0.21 | 0.21 | 75 | 1016.3 |
| 20260901181529 | 94 | 110 | 3.0 | 5.0 | 0.00 | 0.21 | 0.21 | 73 | 1016.3 |
| 20260901181029 | 94 | 268 | 1.0 | 1.0 | 0.00 | 0.21 | 0.21 | 74 | 1016.5 |
| 20260901180527 | 92 | 108 | 1.0 | 2.0 | 0.00 | 0.21 | 0.21 | 77 | 1016.6 |
| 20260901180022 | 93 | 48 | 2.0 | 2.0 | 0.00 | 0.21 | 0.21 | 76 | 1016.6 |
| 20260901175516 | 93 | 38 | 5.0 | 7.0 | 0.00 | 0.21 | 0.21 | 76 | 1016.6 |
| 20260901175017 | 92 | 69 | 1.0 | 1.0 | 0.00 | 0.21 | 0.21 | 78 | 1017.0 |
| 20260901174513 | 93 | 342 | 2.0 | 2.0 | 0.00 | 0.21 | 0.21 | 76 | 1016.8 |
| 20260901174008 | 93 | 80 | 1.0 | 1.0 | 0.00 | 0.21 | 0.21 | 75 | 1016.7 |
| 20260901173503 | 92 | 0 | 3.0 | 5.0 | 0.00 | 0.21 | 0.21 | 73 | 1016.9 |
| 20260901172959 | 93 | 344 | 2.0 | 6.0 | 0.00 | 0.21 | 0.21 | 77 | 1017.1 |
| 20260901172454 | 93 | 27 | 2.0 | 3.0 | 0.00 | 0.21 | 0.21 | 79 | 1017.0 |
| 20260901171952 | 93 | 275 | 1.0 | 1.0 | 0.00 | 0.21 | 0.21 | 76 | 1017.1 |
| 20260901171451 | 92 | 23 | 3.0 | 3.0 | 0.00 | 0.21 | 0.21 | 78 | 1017.2 |
| 20260901170950 | 91 | 322 | 2.0 | 2.0 | 0.00 | 0.21 | 0.21 | 79 | 1017.2 |
| 20260901170445 | 92 | 28 | 1.0 | 2.0 | 0.00 | 0.21 | 0.21 | 79 | 1017.3 |
| 20260901165944 | 90 | 358 | 0.0 | 0.0 | 0.00 | 0.21 | 0.21 | 81 | 1017.4 |
| 20260901165439 | 92 | 329 | 1.0 | 1.0 | 0.00 | 0.21 | 0.21 | 81 | 1017.3 |
| 20260901164935 | 91 | 134 | 3.0 | 5.0 | 0.00 | 0.21 | 0.21 | 79 | 1017.1 |
| 20260901164436 | 91 | 35 | 1.0 | 1.0 | 0.00 | 0.21 | 0.21 | 84 | 1017.5 |
| 20260901163931 | 91 | 354 | 2.0 | 5.0 | 0.00 | 0.21 | 0.21 | 83 | 1017.6 |
| 20260901163427 | 90 | 111 | 1.0 | 1.0 | 0.00 | 0.21 | 0.21 | 85 | 1017.2 |
| 20260901162925 | 90 | 344 | 4.0 | 5.0 | 0.00 | 0.21 | 0.21 | 86 | 1017.4 |
| 20260901162420 | 88 | 356 | 0.0 | 0.0 | 0.00 | 0.21 | 0.21 | 89 | 1017.5 |
| 20260901161919 | 88 | 312 | 0.0 | 0.0 | 0.00 | 0.21 | 0.21 | 94 | 1017.6 |
| 20260901161419 | 86 | 333 | 0.0 | 0.0 | 0.00 | 0.21 | 0.21 | 94 | 1017.6 |
| 20260901160914 | 86 | 333 | 0.0 | 0.0 | 0.07 | 0.21 | 0.21 | 95 | 1017.6 |
| 20260901160410 | 86 | 313 | 0.0 | 0.0 | 0.07 | 0.21 | 0.21 | 94 | 1017.8 |
| 20260901155909 | 87 | 326 | 0.0 | 1.0 | 0.00 | 0.20 | 0.20 | 91 | 1017.7 |
| 20260901155404 | 88 | 51 | 1.0 | 2.0 | 0.00 | 0.20 | 0.20 | 88 | 1017.8 |
| 20260901154901 | 90 | 3 | 1.0 | 2.0 | 0.00 | 0.20 | 0.20 | 83 | 1017.7 |
| 20260901154400 | 90 | 18 | 3.0 | 3.0 | 0.00 | 0.20 | 0.20 | 83 | 1017.8 |
| 20260901153855 | 90 | 327 | 3.0 | 3.0 | 0.00 | 0.20 | 0.20 | 83 | 1018.0 |
| 20260901153354 | 91 | 25 | 0.0 | 1.0 | 0.00 | 0.20 | 0.20 | 82 | 1017.8 |
| 20260901152853 | 89 | 343 | 0.0 | 0.0 | 0.00 | 0.20 | 0.20 | 82 | 1017.9 |
| 20260901152349 | 90 | 43 | 0.0 | 0.0 | 0.00 | 0.20 | 0.20 | 81 | 1018.1 |
| 20260901151843 | 92 | 0 | 2.0 | 3.0 | 0.00 | 0.20 | 0.20 | 78 | 1017.9 |
| 20260901151338 | 91 | 351 | 0.0 | 0.0 | 0.00 | 0.20 | 0.20 | 77 | 1017.8 |
| 20260901150837 | 91 | 349 | 1.0 | 2.0 | 0.00 | 0.20 | 0.20 | 78 | 1017.6 |
| 20260901150335 | 90 | 344 | 4.0 | 6.0 | 0.00 | 0.20 | 0.20 | 80 | 1017.9 |
| 20260901145832 | 89 | 323 | 1.0 | 1.0 | 0.00 | 0.20 | 0.20 | 81 | 1017.5 |
| 20260901145327 | 88 | 6 | 2.0 | 3.0 | 0.00 | 0.20 | 0.20 | 86 | 1017.7 |
| 20260901144822 | 89 | 59 | 0.0 | 1.0 | 0.00 | 0.20 | 0.20 | 89 | 1017.8 |
| 20260901144318 | 88 | 299 | 0.0 | 0.0 | 0.00 | 0.20 | 0.20 | 90 | 1017.8 |
| 20260901143814 | 88 | 297 | 0.0 | 0.0 | 0.00 | 0.20 | 0.20 | 90 | 1017.8 |
| 20260901143310 | 87 | 318 | 0.0 | 0.0 | 0.00 | 0.20 | 0.20 | 91 | 1017.4 |
| 20260901142805 | 87 | 325 | 1.0 | 1.0 | 0.00 | 0.20 | 0.20 | 92 | 1017.7 |
| 20260901142306 | 87 | 298 | 0.0 | 0.0 | 0.00 | 0.20 | 0.20 | 91 | 1017.6 |
| 20260901141800 | 88 | 322 | 0.0 | 1.0 | 0.00 | 0.20 | 0.20 | 89 | 1017.7 |
| 20260901141255 | 88 | 313 | 0.0 | 0.0 | 0.00 | 0.20 | 0.20 | 88 | 1017.4 |
| 20260901140754 | 89 | 288 | 0.0 | 0.0 | 0.00 | 0.20 | 0.20 | 91 | 1017.5 |
| 20260901140252 | 88 | 326 | 0.0 | 0.0 | 0.00 | 0.20 | 0.20 | 90 | 1017.6 |
| 20260901135748 | 88 | 331 | 0.0 | 0.0 | 0.00 | 0.20 | 0.20 | 90 | 1017.5 |
| 20260901135247 | 90 | 276 | 3.0 | 3.0 | 0.00 | 0.20 | 0.20 | 85 | 1017.6 |
| 20260901134744 | 89 | 330 | 0.0 | 0.0 | 0.00 | 0.20 | 0.20 | 86 | 1017.7 |
| 20260901134243 | 89 | 76 | 0.0 | 0.0 | 0.00 | 0.20 | 0.20 | 88 | 1017.6 |
| 20260901133743 | 88 | 10 | 1.0 | 2.0 | 0.00 | 0.20 | 0.20 | 89 | 1017.5 |
| 20260901133243 | 88 | 345 | 1.0 | 2.0 | 0.00 | 0.20 | 0.20 | 90 | 1017.1 |
| 20260901132741 | 89 | 34 | 0.0 | 0.0 | 0.00 | 0.20 | 0.20 | 90 | 1017.2 |
| 20260901132236 | 87 | 15 | 0.0 | 0.0 | 0.00 | 0.20 | 0.20 | 96 | 1017.2 |
| 20260901131731 | 85 | 3 | 0.0 | 0.0 | 0.00 | 0.20 | 0.20 | 99 | 1017.4 |
| 20260901131230 | 84 | 35 | 1.0 | 1.0 | 0.00 | 0.20 | 0.20 | 99 | 1017.3 |
| 20260901130725 | 84 | 11 | 0.0 | 1.0 | 0.00 | 0.20 | 0.20 | 99 | 1017.3 |
| 20260901130224 | 84 | 333 | 1.0 | 1.0 | 0.00 | 0.20 | 0.20 | 99 | 1017.3 |
| 20260901125722 | 84 | 333 | 0.0 | 0.0 | 0.00 | 0.20 | 0.20 | 99 | 1017.3 |
| 20260901125218 | 83 | 331 | 0.0 | 0.0 | 0.00 | 0.20 | 0.20 | 99 | 1017.2 |
| 20260901124712 | 83 | 355 | 0.0 | 1.0 | 0.00 | 0.20 | 0.20 | 99 | 1017.2 |
| 20260901124207 | 83 | 14 | 1.0 | 1.0 | 0.00 | 0.20 | 0.20 | 99 | 1017.1 |
| 20260901123707 | 83 | 348 | 0.0 | 0.0 | 0.00 | 0.20 | 0.20 | 99 | 1017.2 |
| 20260901123202 | 83 | 316 | 0.0 | 0.0 | 0.00 | 0.20 | 0.20 | 99 | 1017.2 |
| 20260901122700 | 82 | 337 | 0.0 | 0.0 | 0.00 | 0.20 | 0.20 | 99 | 1017.4 |
| 20260901122155 | 82 | 340 | 1.0 | 1.0 | 0.00 | 0.20 | 0.20 | 99 | 1016.9 |
| 20260901121649 | 82 | 340 | 1.0 | 2.0 | 0.00 | 0.20 | 0.20 | 99 | 1016.9 |
| 20260901121145 | 81 | 329 | 0.0 | 0.0 | 0.00 | 0.20 | 0.20 | 99 | 1016.9 |
| 20260901120644 | 81 | 333 | 2.0 | 2.0 | 0.00 | 0.20 | 0.20 | 99 | 1016.9 |
| 20260901120139 | 81 | 330 | 1.0 | 1.0 | 0.00 | 0.20 | 0.20 | 99 | 1016.9 |
| 20260901115635 | 80 | 329 | 1.0 | 1.0 | 0.00 | 0.20 | 0.20 | 99 | 1016.7 |
| 20260901115131 | 80 | 338 | 0.0 | 0.0 | 0.00 | 0.20 | 0.20 | 99 | 1016.8 |
| 20260901114628 | 80 | 321 | 0.0 | 0.0 | 0.00 | 0.20 | 0.20 | 99 | 1016.8 |
| 20260901114126 | 79 | 310 | 0.0 | 0.0 | 0.00 | 0.20 | 0.20 | 99 | 1016.7 |
| 20260901113625 | 78 | 333 | 1.0 | 1.0 | 0.00 | 0.20 | 0.20 | 99 | 1016.7 |
| 20260901113121 | 78 | 305 | 0.0 | 0.0 | 0.00 | 0.20 | 0.20 | 99 | 1016.6 |
| 20260901112621 | 78 | 305 | 0.0 | 0.0 | 0.00 | 0.20 | 0.20 | 99 | 1016.5 |
| 20260901112115 | 78 | 305 | 0.0 | 0.0 | 0.05 | 0.20 | 0.20 | 99 | 1016.4 |
| 20260901111614 | 78 | 320 | 0.0 | 0.0 | 0.05 | 0.20 | 0.20 | 99 | 1016.2 |
| 20260901111113 | 78 | 319 | 0.0 | 0.0 | 0.00 | 0.19 | 0.19 | 99 | 1016.3 |
| 20260901110609 | 78 | 319 | 0.0 | 0.0 | 0.00 | 0.19 | 0.19 | 99 | 1016.1 |
| 20260901110105 | 78 | 320 | 0.0 | 0.0 | 0.00 | 0.19 | 0.19 | 99 | 1016.2 |
| 20260901105601 | 78 | 319 | 0.0 | 0.0 | 0.00 | 0.19 | 0.19 | 99 | 1016.2 |
| 20260901105100 | 78 | 319 | 0.0 | 0.0 | 0.00 | 0.19 | 0.19 | 99 | 1016.2 |
| 20260901104557 | 78 | 319 | 0.0 | 0.0 | 0.00 | 0.19 | 0.19 | 99 | 1016.1 |
| 20260901104052 | 78 | 319 | 0.0 | 0.0 | 0.00 | 0.19 | 0.19 | 99 | 1016.0 |
| 20260901103551 | 78 | 319 | 0.0 | 0.0 | 0.00 | 0.19 | 0.19 | 99 | 1016.0 |
| 20260901103047 | 78 | 319 | 0.0 | 0.0 | 0.00 | 0.19 | 0.19 | 99 | 1016.0 |
| 20260901102546 | 78 | 319 | 0.0 | 0.0 | 0.00 | 0.19 | 0.19 | 99 | 1015.9 |
| 20260901102041 | 78 | 319 | 0.0 | 0.0 | 0.00 | 0.19 | 0.19 | 99 | 1016.0 |
| 20260901101537 | 78 | 319 | 0.0 | 0.0 | 0.00 | 0.19 | 0.19 | 99 | 1016.1 |
| 20260901101037 | 78 | 319 | 0.0 | 0.0 | 0.00 | 0.19 | 0.19 | 99 | 1016.0 |
| 20260901100536 | 78 | 319 | 0.0 | 0.0 | 0.00 | 0.19 | 0.19 | 99 | 1016.1 |
| 20260901100031 | 78 | 320 | 0.0 | 0.0 | 0.00 | 0.19 | 0.19 | 99 | 1016.0 |
| 20260901095529 | 78 | 320 | 0.0 | 0.0 | 0.00 | 0.19 | 0.19 | 99 | 1016.1 |
| 20260901095027 | 78 | 320 | 0.0 | 0.0 | 0.00 | 0.19 | 0.19 | 99 | 1015.9 |
| 20260901094522 | 78 | 319 | 0.0 | 0.0 | 0.00 | 0.19 | 0.19 | 99 | 1016.1 |
| 20260901094021 | 78 | 319 | 0.0 | 0.0 | 0.00 | 0.19 | 0.19 | 99 | 1016.0 |
| 20260901093516 | 78 | 319 | 0.0 | 0.0 | 0.00 | 0.19 | 0.19 | 99 | 1016.0 |
| 20260901093011 | 78 | 320 | 0.0 | 0.0 | 0.00 | 0.19 | 0.19 | 99 | 1015.8 |
| 20260901092508 | 78 | 320 | 0.0 | 0.0 | 0.00 | 0.19 | 0.19 | 99 | 1015.9 |
| 20260901092003 | 78 | 320 | 0.0 | 0.0 | 0.00 | 0.19 | 0.19 | 99 | 1015.9 |
| 20260901091458 | 78 | 320 | 0.0 | 0.0 | 0.00 | 0.19 | 0.19 | 99 | 1015.9 |
| 20260901090952 | 78 | 320 | 0.0 | 0.0 | 0.00 | 0.19 | 0.19 | 99 | 1016.2 |
| 20260901090452 | 78 | 321 | 0.0 | 0.0 | 0.00 | 0.19 | 0.19 | 99 | 1016.0 |
| 20260901085948 | 78 | 321 | 0.0 | 0.0 | 0.00 | 0.19 | 0.19 | 99 | 1016.0 |
| 20260901085443 | 78 | 320 | 0.0 | 0.0 | 0.00 | 0.19 | 0.19 | 99 | 1015.9 |
| 20260901084940 | 78 | 319 | 0.0 | 0.0 | 0.00 | 0.19 | 0.19 | 99 | 1016.1 |
| 20260901084436 | 79 | 319 | 0.0 | 0.0 | 0.00 | 0.19 | 0.19 | 99 | 1015.8 |
| 20260901083931 | 79 | 325 | 0.0 | 0.0 | 0.00 | 0.19 | 0.19 | 99 | 1015.9 |
| 20260901083431 | 79 | 325 | 0.0 | 0.0 | 0.00 | 0.19 | 0.19 | 99 | 1015.8 |
| 20260901082929 | 79 | 326 | 0.0 | 0.0 | 0.00 | 0.19 | 0.19 | 99 | 1016.0 |
| 20260901082425 | 79 | 346 | 0.0 | 0.0 | 0.00 | 0.19 | 0.19 | 99 | 1015.9 |
| 20260901081920 | 79 | 335 | 0.0 | 0.0 | 0.00 | 0.19 | 0.19 | 99 | 1015.6 |
| 20260901081414 | 79 | 332 | 0.0 | 0.0 | 0.00 | 0.19 | 0.19 | 99 | 1015.7 |
| 20260901080910 | 79 | 332 | 0.0 | 0.0 | 0.00 | 0.19 | 0.19 | 99 | 1016.0 |
| 20260901080404 | 79 | 333 | 0.0 | 0.0 | 0.00 | 0.19 | 0.19 | 99 | 1016.0 |
| 20260901075904 | 79 | 324 | 0.0 | 0.0 | 0.00 | 0.19 | 0.19 | 99 | 1015.9 |
| 20260901075359 | 79 | 313 | 0.0 | 0.0 | 0.00 | 0.19 | 0.19 | 99 | 1015.9 |
| 20260901074853 | 79 | 313 | 0.0 | 0.0 | 0.00 | 0.19 | 0.19 | 99 | 1016.1 |
| 20260901074348 | 79 | 313 | 0.0 | 0.0 | 0.00 | 0.19 | 0.19 | 99 | 1016.3 |
| 20260901073843 | 79 | 314 | 0.0 | 0.0 | 0.00 | 0.19 | 0.19 | 99 | 1016.0 |
| 20260901073339 | 79 | 311 | 0.0 | 0.0 | 0.00 | 0.19 | 0.19 | 99 | 1016.2 |
| 20260901072835 | 79 | 311 | 0.0 | 0.0 | 0.00 | 0.19 | 0.19 | 99 | 1016.0 |
| 20260901072335 | 79 | 312 | 0.0 | 0.0 | 0.00 | 0.19 | 0.19 | 99 | 1016.1 |
| 20260901071830 | 79 | 312 | 0.0 | 0.0 | 0.00 | 0.19 | 0.19 | 99 | 1016.4 |
| 20260901071328 | 79 | 303 | 0.0 | 0.0 | 0.00 | 0.19 | 0.19 | 99 | 1016.4 |
| 20260901070827 | 80 | 303 | 0.0 | 0.0 | 0.00 | 0.19 | 0.19 | 99 | 1016.4 |
| 20260901070323 | 80 | 303 | 0.0 | 0.0 | 0.00 | 0.19 | 0.19 | 99 | 1016.6 |
| 20260901065822 | 80 | 302 | 0.0 | 0.0 | 0.00 | 0.19 | 0.19 | 99 | 1016.5 |
| 20260901065317 | 80 | 306 | 0.0 | 0.0 | 0.00 | 0.19 | 0.19 | 99 | 1016.6 |
| 20260901064813 | 80 | 321 | 0.0 | 0.0 | 0.07 | 0.19 | 0.19 | 99 | 1016.5 |
| 20260901064309 | 80 | 345 | 1.0 | 1.0 | 0.07 | 0.19 | 0.19 | 99 | 1016.8 |
| 20260901063807 | 80 | 277 | 1.0 | 1.0 | 0.00 | 0.18 | 0.18 | 99 | 1016.8 |
| 20260901063303 | 80 | 267 | 0.0 | 0.0 | 0.00 | 0.18 | 0.18 | 99 | 1016.9 |
| 20260901062758 | 80 | 293 | 0.0 | 0.0 | 0.00 | 0.18 | 0.18 | 99 | 1016.9 |
| 20260901062254 | 80 | 293 | 0.0 | 0.0 | 0.00 | 0.18 | 0.18 | 99 | 1016.7 |
| 20260901061749 | 80 | 293 | 0.0 | 0.0 | 0.00 | 0.18 | 0.18 | 99 | 1016.8 |
| 20260901061249 | 80 | 292 | 0.0 | 0.0 | 0.00 | 0.18 | 0.18 | 99 | 1016.9 |
| 20260901060744 | 80 | 308 | 0.0 | 0.0 | 0.00 | 0.18 | 0.18 | 99 | 1017.1 |
| 20260901060240 | 80 | 332 | 0.0 | 0.0 | 0.00 | 0.18 | 0.18 | 99 | 1017.0 |
| 20260901055735 | 80 | 316 | 0.0 | 0.0 | 0.05 | 0.18 | 0.18 | 99 | 1017.0 |
| 20260901055232 | 80 | 296 | 1.0 | 1.0 | 0.31 | 0.18 | 0.18 | 99 | 1017.0 |
| 20260901054728 | 80 | 300 | 0.0 | 0.0 | 0.85 | 0.17 | 0.17 | 99 | 1017.2 |
| 20260901054225 | 80 | 201 | 2.0 | 2.0 | 0.78 | 0.13 | 0.13 | 99 | 1017.3 |
| 20260901053720 | 80 | 163 | 6.0 | 7.0 | 0.14 | 0.02 | 0.02 | 99 | 1017.3 |
| 20260901053216 | 80 | 134 | 5.0 | 7.0 | 0.00 | 0.00 | 0.00 | 99 | 1017.4 |
| 20260901052711 | 80 | 313 | 0.0 | 0.0 | 0.00 | 0.00 | 0.00 | 99 | 1017.4 |
| 20260901052207 | 80 | 312 | 0.0 | 0.0 | 0.00 | 0.00 | 0.00 | 99 | 1017.4 |
| 20260901051705 | 80 | 312 | 0.0 | 0.0 | 0.00 | 0.00 | 0.00 | 99 | 1017.4 |
| 20260901051205 | 80 | 313 | 0.0 | 0.0 | 0.00 | 0.00 | 0.00 | 99 | 1017.5 |
| 20260901050701 | 80 | 312 | 0.0 | 0.0 | 0.00 | 0.00 | 0.00 | 99 | 1017.5 |
| 20260901050155 | 80 | 313 | 0.0 | 0.0 | 0.00 | 0.00 | 0.00 | 99 | 1017.6 |
| 20260901045650 | 80 | 312 | 0.0 | 0.0 | 0.00 | 0.00 | 0.00 | 99 | 1017.6 |
| 20260901045145 | 80 | 312 | 0.0 | 0.0 | 0.00 | 0.00 | 0.00 | 99 | 1017.6 |
| 20260901044640 | 80 | 312 | 0.0 | 0.0 | 0.00 | 0.00 | 0.00 | 99 | 1017.5 |
| 20260901044137 | 80 | 312 | 0.0 | 0.0 | 0.00 | 0.00 | 0.00 | 99 | 1017.8 |
| 20260901043632 | 80 | 313 | 0.0 | 0.0 | 0.00 | 0.00 | 0.00 | 99 | 1017.6 |
| 20260901043128 | 80 | 313 | 0.0 | 0.0 | 0.00 | 0.00 | 0.00 | 99 | 1017.7 |
| 20260901042626 | 80 | 312 | 0.0 | 0.0 | 0.00 | 0.00 | 0.00 | 99 | 1017.6 |
| 20260901042122 | 80 | 302 | 0.0 | 0.0 | 0.00 | 0.00 | 0.00 | 99 | 1017.7 |
| 20260901041618 | 80 | 301 | 0.0 | 0.0 | 0.00 | 0.00 | 0.00 | 99 | 1017.5 |
| 20260901041112 | 80 | 303 | 0.0 | 0.0 | 0.00 | 0.00 | 0.00 | 99 | 1017.7 |
| 20260901040612 | 80 | 310 | 0.0 | 0.0 | 0.00 | 0.00 | 0.00 | 99 | 1017.8 |
| 20260901040106 | 80 | 310 | 0.0 | 0.0 | 0.00 | 0.00 | 0.00 | 99 | 1017.6 |
| 20260901035604 | 80 | 313 | 0.0 | 0.0 | 0.00 | 0.04 | 0.04 | 99 | 1017.6 |
| 20260901035103 | 80 | 313 | 0.0 | 0.0 | 0.00 | 0.04 | 0.04 | 99 | 1017.7 |
| 20260901034603 | 81 | 313 | 0.0 | 0.0 | 0.00 | 0.04 | 0.04 | 99 | 1017.7 |
| 20260901034058 | 80 | 311 | 0.0 | 0.0 | 0.00 | 0.04 | 0.04 | 99 | 1017.7 |
| 20260901033556 | 80 | 303 | 0.0 | 0.0 | 0.00 | 0.04 | 0.04 | 99 | 1017.7 |
| 20260901033051 | 81 | 304 | 0.0 | 0.0 | 0.00 | 0.04 | 0.04 | 99 | 1017.7 |
| 20260901032549 | 81 | 310 | 0.0 | 0.0 | 0.05 | 0.04 | 0.04 | 99 | 1017.6 |
| 20260901032045 | 81 | 310 | 0.0 | 0.0 | 0.05 | 0.04 | 0.04 | 99 | 1017.8 |
| 20260901031541 | 81 | 309 | 0.0 | 0.0 | 0.00 | 0.03 | 0.03 | 99 | 1017.7 |
| 20260901031036 | 81 | 191 | 2.0 | 2.0 | 0.00 | 0.03 | 0.03 | 99 | 1018.0 |
| 20260901030536 | 80 | 310 | 0.0 | 0.0 | 0.00 | 0.03 | 0.03 | 99 | 1017.7 |
| 20260901030031 | 80 | 310 | 0.0 | 0.0 | 0.00 | 0.03 | 0.03 | 99 | 1018.0 |
| 20260901025525 | 80 | 311 | 0.0 | 0.0 | 0.00 | 0.03 | 0.03 | 99 | 1018.0 |
| 20260901025024 | 80 | 311 | 0.0 | 0.0 | 0.00 | 0.03 | 0.03 | 99 | 1017.8 |
| 20260901024520 | 80 | 311 | 0.0 | 0.0 | 0.00 | 0.03 | 0.03 | 99 | 1018.0 |
| 20260901024019 | 80 | 311 | 0.0 | 0.0 | 0.00 | 0.03 | 0.03 | 99 | 1017.9 |
| 20260901023513 | 80 | 310 | 0.0 | 0.0 | 0.00 | 0.03 | 0.03 | 99 | 1017.9 |
| 20260901023008 | 80 | 310 | 0.0 | 0.0 | 0.00 | 0.03 | 0.03 | 99 | 1017.9 |
| 20260901022503 | 80 | 310 | 0.0 | 0.0 | 0.00 | 0.03 | 0.03 | 99 | 1017.9 |
| 20260901021958 | 80 | 317 | 0.0 | 0.0 | 0.00 | 0.03 | 0.03 | 99 | 1017.8 |
| 20260901021453 | 80 | 317 | 0.0 | 0.0 | 0.00 | 0.03 | 0.03 | 99 | 1017.9 |
| 20260901020949 | 80 | 318 | 0.0 | 0.0 | 0.00 | 0.03 | 0.03 | 99 | 1017.8 |
| 20260901020444 | 80 | 317 | 0.0 | 0.0 | 0.00 | 0.03 | 0.03 | 99 | 1017.7 |
| 20260901015943 | 80 | 315 | 0.0 | 0.0 | 0.00 | 0.03 | 0.03 | 99 | 1017.7 |
| 20260901015440 | 80 | 306 | 0.0 | 0.0 | 0.00 | 0.03 | 0.03 | 99 | 1017.7 |
| 20260901014939 | 80 | 307 | 0.0 | 0.0 | 0.00 | 0.03 | 0.03 | 99 | 1017.6 |
| 20260901014435 | 80 | 306 | 0.0 | 0.0 | 0.00 | 0.03 | 0.03 | 99 | 1017.4 |
| 20260901013930 | 80 | 306 | 0.0 | 0.0 | 0.00 | 0.03 | 0.03 | 99 | 1017.4 |
| 20260901013426 | 81 | 307 | 0.0 | 0.0 | 0.00 | 0.03 | 0.03 | 99 | 1017.5 |
| 20260901012921 | 81 | 307 | 0.0 | 0.0 | 0.00 | 0.03 | 0.03 | 99 | 1017.3 |
| 20260901012416 | 80 | 303 | 0.0 | 0.0 | 0.00 | 0.03 | 0.03 | 99 | 1017.3 |
| 20260901011912 | 81 | 303 | 0.0 | 0.0 | 0.00 | 0.03 | 0.03 | 99 | 1017.1 |
| 20260901011408 | 81 | 303 | 0.0 | 0.0 | 0.00 | 0.03 | 0.03 | 99 | 1017.2 |
| 20260901010906 | 81 | 304 | 0.0 | 0.0 | 0.00 | 0.03 | 0.03 | 99 | 1017.1 |
| 20260901010401 | 81 | 303 | 0.0 | 0.0 | 0.00 | 0.03 | 0.03 | 99 | 1017.1 |
| 20260901005859 | 81 | 303 | 0.0 | 0.0 | 0.00 | 0.03 | 0.03 | 99 | 1017.2 |
| 20260901005355 | 81 | 303 | 0.0 | 0.0 | 0.00 | 0.03 | 0.03 | 99 | 1017.2 |
| 20260901004850 | 81 | 303 | 0.0 | 0.0 | 0.00 | 0.03 | 0.03 | 99 | 1017.0 |
| 20260901004349 | 81 | 303 | 0.0 | 0.0 | 0.00 | 0.03 | 0.03 | 99 | 1017.0 |
| 20260901003844 | 81 | 302 | 0.0 | 0.0 | 0.00 | 0.03 | 0.03 | 99 | 1017.0 |
| 20260901003339 | 81 | 301 | 0.0 | 0.0 | 0.00 | 0.03 | 0.03 | 99 | 1016.9 |
| 20260901002837 | 81 | 301 | 0.0 | 0.0 | 0.00 | 0.03 | 0.03 | 99 | 1017.1 |
| 20260901002337 | 81 | 302 | 0.0 | 0.0 | 0.00 | 0.03 | 0.03 | 99 | 1017.1 |
| 20260901001832 | 82 | 322 | 0.0 | 0.0 | 0.00 | 0.03 | 0.03 | 99 | 1016.8 |
| 20260901001327 | 81 | 322 | 0.0 | 0.0 | 0.00 | 0.03 | 0.03 | 99 | 1016.8 |
| 20260901000823 | 82 | 329 | 0.0 | 0.0 | 0.00 | 0.03 | 0.03 | 99 | 1016.6 |
| 20260901000318 | 82 | 330 | 0.0 | 0.0 | 0.00 | 0.03 | 0.03 | 99 | 1016.8 |
| 20260831235816 | 82 | 313 | 0.0 | 0.0 | 0.00 | 0.03 | 0.03 | 99 | 1016.7 |
| 20260831235312 | 82 | 294 | 0.0 | 0.0 | 0.00 | 0.03 | 0.03 | 99 | 1016.9 |
| 20260831234807 | 82 | 296 | 0.0 | 0.0 | 0.00 | 0.03 | 0.03 | 99 | 1017.0 |
| 20260831234307 | 82 | 296 | 0.0 | 0.0 | 0.00 | 0.03 | 0.03 | 99 | 1017.1 |
| 20260831233803 | 82 | 295 | 0.0 | 0.0 | 0.00 | 0.03 | 0.03 | 99 | 1016.9 |
| 20260831233258 | 83 | 294 | 0.0 | 0.0 | 0.00 | 0.03 | 0.03 | 99 | 1016.7 |
| 20260831232752 | 83 | 302 | 0.0 | 0.0 | 0.00 | 0.03 | 0.03 | 98 | 1016.8 |
| 20260831232249 | 83 | 310 | 0.0 | 0.0 | 0.00 | 0.03 | 0.03 | 98 | 1016.8 |
| 20260831231744 | 83 | 347 | 2.0 | 2.0 | 0.00 | 0.03 | 0.03 | 98 | 1016.5 |
| 20260831231241 | 83 | 326 | 0.0 | 0.0 | 0.00 | 0.03 | 0.03 | 98 | 1016.7 |
| 20260831230736 | 83 | 316 | 0.0 | 0.0 | 0.00 | 0.03 | 0.03 | 98 | 1016.7 |
| 20260831230231 | 83 | 300 | 0.0 | 0.0 | 0.00 | 0.03 | 0.03 | 98 | 1016.6 |
| 20260831225730 | 83 | 290 | 0.0 | 0.0 | 0.00 | 0.03 | 0.03 | 98 | 1016.8 |
| 20260831225226 | 83 | 290 | 0.0 | 0.0 | 0.00 | 0.03 | 0.03 | 98 | 1016.8 |
| 20260831224720 | 83 | 297 | 0.0 | 0.0 | 0.00 | 0.03 | 0.03 | 97 | 1016.7 |
| 20260831224216 | 83 | 332 | 0.0 | 0.0 | 0.00 | 0.03 | 0.03 | 98 | 1016.8 |
| 20260831223711 | 83 | 327 | 0.0 | 0.0 | 0.00 | 0.03 | 0.03 | 98 | 1016.7 |
| 20260831223208 | 83 | 355 | 0.0 | 1.0 | 0.00 | 0.03 | 0.03 | 98 | 1016.6 |
| 20260831222703 | 83 | 322 | 0.0 | 0.0 | 0.00 | 0.03 | 0.03 | 98 | 1016.4 |
| 20260831222158 | 83 | 347 | 0.0 | 0.0 | 0.00 | 0.03 | 0.03 | 98 | 1016.6 |
| 20260831221648 | 83 | 327 | 0.0 | 0.0 | 0.00 | 0.03 | 0.03 | 98 | 1016.4 |
| 20260831221143 | 83 | 331 | 0.0 | 0.0 | 0.00 | 0.03 | 0.03 | 98 | 1016.6 |
| 20260831220638 | 83 | 331 | 1.0 | 1.0 | 0.00 | 0.03 | 0.03 | 98 | 1016.6 |
| 20260831220133 | 83 | 312 | 0.0 | 0.0 | 0.00 | 0.03 | 0.03 | 98 | 1016.7 |
| 20260831215629 | 82 | 344 | 0.0 | 0.0 | 0.00 | 0.03 | 0.03 | 98 | 1016.9 |
| 20260831215124 | 82 | 323 | 0.0 | 0.0 | 0.00 | 0.03 | 0.03 | 98 | 1016.8 |
| 20260831214622 | 82 | 322 | 0.0 | 0.0 | 0.00 | 0.03 | 0.03 | 97 | 1016.9 |
| 20260831214118 | 82 | 351 | 1.0 | 2.0 | 0.00 | 0.03 | 0.03 | 97 | 1016.6 |
| 20260831213614 | 82 | 315 | 0.0 | 0.0 | 0.00 | 0.03 | 0.03 | 98 | 1016.7 |
| 20260831213109 | 82 | 313 | 0.0 | 0.0 | 0.00 | 0.03 | 0.03 | 98 | 1016.9 |
| 20260831212605 | 82 | 331 | 0.0 | 0.0 | 0.00 | 0.03 | 0.03 | 98 | 1016.7 |
| 20260831212101 | 82 | 2 | 2.0 | 2.0 | 0.00 | 0.03 | 0.03 | 98 | 1016.6 |
| 20260831211600 | 82 | 323 | 0.0 | 0.0 | 0.00 | 0.03 | 0.03 | 99 | 1017.0 |
| 20260831211100 | 82 | 331 | 2.0 | 2.0 | 0.00 | 0.03 | 0.03 | 99 | 1016.8 |
| 20260831210555 | 82 | 329 | 2.0 | 2.0 | 0.00 | 0.03 | 0.03 | 99 | 1017.0 |
| 20260831210051 | 81 | 327 | 2.0 | 2.0 | 0.00 | 0.03 | 0.03 | 99 | 1016.9 |
| 20260831205545 | 81 | 29 | 1.0 | 1.0 | 0.00 | 0.03 | 0.03 | 99 | 1017.0 |
| 20260831205041 | 81 | 328 | 0.0 | 1.0 | 0.00 | 0.03 | 0.03 | 99 | 1017.1 |
| 20260831204536 | 81 | 351 | 2.0 | 3.0 | 0.00 | 0.03 | 0.03 | 99 | 1016.8 |
| 20260831204034 | 81 | 353 | 3.0 | 5.0 | 0.00 | 0.03 | 0.03 | 99 | 1017.2 |
| 20260831203534 | 82 | 327 | 2.0 | 3.0 | 0.00 | 0.03 | 0.03 | 99 | 1017.2 |
| 20260831203033 | 82 | 341 | 1.0 | 2.0 | 0.00 | 0.03 | 0.03 | 99 | 1017.2 |
| 20260831202527 | 83 | 310 | 0.0 | 0.0 | 0.00 | 0.03 | 0.03 | 99 | 1017.4 |
| 20260831202027 | 83 | 308 | 0.0 | 1.0 | 0.00 | 0.03 | 0.03 | 99 | 1017.3 |
| 20260831201525 | 83 | 343 | 0.0 | 0.0 | 0.00 | 0.03 | 0.03 | 99 | 1017.3 |
| 20260831201021 | 83 | 308 | 0.0 | 0.0 | 0.07 | 0.03 | 0.03 | 99 | 1017.3 |
| 20260831200517 | 83 | 312 | 0.0 | 0.0 | 0.07 | 0.03 | 0.03 | 99 | 1017.1 |
| 20260831200012 | 82 | 312 | 0.0 | 0.0 | 0.00 | 0.02 | 0.02 | 99 | 1017.3 |
| 20260831195508 | 82 | 329 | 0.0 | 0.0 | 0.05 | 0.02 | 0.02 | 99 | 1017.4 |
| 20260831195007 | 82 | 295 | 0.0 | 1.0 | 0.05 | 0.02 | 0.02 | 99 | 1017.4 |
| 20260831194503 | 82 | 327 | 1.0 | 1.0 | 0.00 | 0.01 | 0.01 | 99 | 1017.4 |
| 20260831194002 | 82 | 323 | 0.0 | 0.0 | 0.00 | 0.01 | 0.01 | 99 | 1017.6 |
| 20260831193458 | 82 | 326 | 0.0 | 0.0 | 0.07 | 0.01 | 0.01 | 99 | 1017.6 |
| 20260831192953 | 82 | 328 | 0.0 | 0.0 | 0.07 | 0.01 | 0.01 | 98 | 1017.7 |